Time,TemperatureF,DewpointF,PressureIn,WindDirection,WindDirectionDegrees,WindSpeedMPH,WindSpeedGustMPH,Humidity,HourlyPrecipIn,Conditions,Clouds,dailyrainin,SoftwareType,DateUTC
2013-08-26 00:01:00,62.7,60.6,30.25,NNE,26,0.0,0.0,93,0.00,,,0.00,Wunderground v.1.15,2013-08-26 04:01:00,
2013-08-26 00:02:00,62.7,60.6,30.24,NNE,26,0.0,0.0,93,0.00,,,0.00,Wunderground v.1.15,2013-08-26 04:02:00,
2013-08-26 00:03:00,62.7,60.6,30.25,NNE,26,0.0,0.0,93,0.00,,,0.00,Wunderground v.1.15,2013-08-26 04:03:00,
2013-08-26 00:05:00,62.6,60.5,30.24,NNE,26,0.0,0.0,93,0.00,,,0.00,Wunderground v.1.15,2013-08-26 04:05:00,
2013-08-26 00:06:00,62.6,60.5,30.24,NNE,26,0.0,0.0,93,0.00,,,0.00,Wunderground v.1.15,2013-08-26 04:06:00,
2013-08-26 00:11:00,62.4,60.3,30.24,NNE,26,0.0,0.0,93,0.00,,,0.00,Wunderground v.1.15,2013-08-26 04:11:00,
2013-08-26 00:17:00,62.3,60.2,30.24,NNE,26,0.0,0.0,93,0.00,,,0.00,Wunderground v.1.15,2013-08-26 04:17:00,
2013-08-26 00:22:00,62.2,60.2,30.24,NNE,26,0.0,0.0,93,0.00,,,0.00,Wunderground v.1.15,2013-08-26 04:22:00,
2013-08-26 00:27:00,62.1,60.1,30.24,NNE,26,0.0,0.0,93,0.00,,,0.00,Wunderground v.1.15,2013-08-26 04:27:00,
2013-08-26 00:32:00,62.0,60.0,30.25,NNE,26,0.0,0.0,93,0.00,,,0.00,Wunderground v.1.15,2013-08-26 04:32:00,
2013-08-26 00:38:00,62.0,60.3,30.25,NNE,26,0.0,0.0,94,0.00,,,0.00,Wunderground v.1.15,2013-08-26 04:38:00,
2013-08-26 00:43:00,61.8,59.8,30.25,NNE,26,0.0,0.0,93,0.00,,,0.00,Wunderground v.1.15,2013-08-26 04:43:00,
2013-08-26 00:48:00,61.7,59.7,30.25,NNE,26,0.0,0.0,93,0.00,,,0.00,Wunderground v.1.15,2013-08-26 04:48:00,
2013-08-26 00:54:00,61.7,60.0,30.25,NNE,26,0.0,0.0,94,0.00,,,0.00,Wunderground v.1.15,2013-08-26 04:54:00,
2013-08-26 00:59:00,61.8,60.1,30.25,NNE,26,0.0,0.0,94,0.00,,,0.00,Wunderground v.1.15,2013-08-26 04:59:00,
2013-08-26 01:04:00,61.7,60.0,30.25,NNE,26,0.0,0.0,94,0.00,,,0.00,Wunderground v.1.15,2013-08-26 05:04:00,
2013-08-26 01:10:00,61.6,59.9,30.25,NNE,26,0.0,0.0,94,0.00,,,0.00,Wunderground v.1.15,2013-08-26 05:10:00,
2013-08-26 01:15:00,61.4,59.7,30.25,NNE,26,0.0,0.0,94,0.00,,,0.00,Wunderground v.1.15,2013-08-26 05:15:00,
2013-08-26 01:20:00,61.3,59.6,30.25,NNE,26,0.0,0.0,94,0.00,,,0.00,Wunderground v.1.15,2013-08-26 05:20:00,
2013-08-26 01:26:00,61.3,59.6,30.24,NNE,26,0.0,0.0,94,0.00,,,0.00,Wunderground v.1.15,2013-08-26 05:26:00,
2013-08-26 01:31:00,61.2,59.5,30.24,NNE,26,0.0,0.0,94,0.00,,,0.00,Wunderground v.1.15,2013-08-26 05:31:00,
2013-08-26 01:37:00,61.0,59.3,30.23,NNE,26,0.0,0.0,94,0.00,,,0.00,Wunderground v.1.15,2013-08-26 05:37:00,
2013-08-26 01:42:00,60.9,59.2,30.23,NNE,26,0.0,0.0,94,0.00,,,0.00,Wunderground v.1.15,2013-08-26 05:42:00,
2013-08-26 01:47:00,60.8,59.1,30.22,NNE,26,0.0,0.0,94,0.00,,,0.00,Wunderground v.1.15,2013-08-26 05:47:00,
2013-08-26 01:52:00,60.7,59.0,30.23,NNE,26,0.0,0.0,94,0.00,,,0.00,Wunderground v.1.15,2013-08-26 05:52:00,
2013-08-26 01:57:00,60.6,58.9,30.22,NNE,26,0.0,0.0,94,0.00,,,0.00,Wunderground v.1.15,2013-08-26 05:57:00,
2013-08-26 02:03:00,60.5,58.8,30.22,NNE,26,0.0,0.0,94,0.00,,,0.00,Wunderground v.1.15,2013-08-26 06:03:00,
2013-08-26 02:08:00,60.5,59.1,30.22,NNE,26,0.0,0.0,95,0.00,,,0.00,Wunderground v.1.15,2013-08-26 06:08:00,
2013-08-26 02:13:00,60.7,59.3,30.22,NNE,26,0.0,0.0,95,0.00,,,0.00,Wunderground v.1.15,2013-08-26 06:13:00,
2013-08-26 02:18:00,60.8,59.4,30.23,NNE,26,0.0,0.0,95,0.00,,,0.00,Wunderground v.1.15,2013-08-26 06:18:00,
2013-08-26 02:23:00,60.7,59.3,30.23,NNE,26,0.0,0.0,95,0.00,,,0.00,Wunderground v.1.15,2013-08-26 06:23:00,
2013-08-26 02:28:00,60.5,58.8,30.23,NNE,26,0.0,0.0,94,0.00,,,0.00,Wunderground v.1.15,2013-08-26 06:28:00,
2013-08-26 02:34:00,60.4,59.0,30.22,NNE,26,0.0,0.0,95,0.00,,,0.00,Wunderground v.1.15,2013-08-26 06:34:00,
2013-08-26 02:39:00,60.3,58.9,30.23,NNE,26,0.0,0.0,95,0.00,,,0.00,Wunderground v.1.15,2013-08-26 06:39:00,
2013-08-26 02:44:00,60.3,58.9,30.22,NNE,26,0.0,0.0,95,0.00,,,0.00,Wunderground v.1.15,2013-08-26 06:44:00,
2013-08-26 02:49:00,60.2,58.8,30.22,NNE,26,0.0,0.0,95,0.00,,,0.00,Wunderground v.1.15,2013-08-26 06:49:00,
2013-08-26 02:55:00,60.0,58.6,30.22,NNE,26,0.0,0.0,95,0.00,,,0.00,Wunderground v.1.15,2013-08-26 06:55:00,
2013-08-26 03:00:00,59.9,58.5,30.22,NNE,26,0.0,0.0,95,0.00,,,0.00,Wunderground v.1.15,2013-08-26 07:00:00,
2013-08-26 03:06:00,59.9,58.5,30.22,NNE,26,0.0,0.0,95,0.00,,,0.00,Wunderground v.1.15,2013-08-26 07:06:00,
2013-08-26 03:11:00,59.9,58.5,30.21,NNE,26,0.0,0.0,95,0.00,,,0.00,Wunderground v.1.15,2013-08-26 07:11:00,
2013-08-26 03:16:00,59.8,58.4,30.21,NNE,26,0.0,0.0,95,0.00,,,0.00,Wunderground v.1.15,2013-08-26 07:16:00,
2013-08-26 03:22:00,59.8,58.4,30.22,NNE,26,0.0,0.0,95,0.00,,,0.00,Wunderground v.1.15,2013-08-26 07:22:00,
2013-08-26 03:27:00,59.7,58.3,30.22,NNE,26,0.0,0.0,95,0.00,,,0.00,Wunderground v.1.15,2013-08-26 07:27:00,
2013-08-26 03:32:00,59.6,58.2,30.22,NNE,26,0.0,0.0,95,0.00,,,0.00,Wunderground v.1.15,2013-08-26 07:32:00,
2013-08-26 03:37:00,59.6,58.2,30.21,NNE,26,0.0,0.0,95,0.00,,,0.00,Wunderground v.1.15,2013-08-26 07:37:00,
2013-08-26 03:43:00,59.6,58.2,30.21,NNE,26,0.0,0.0,95,0.00,,,0.00,Wunderground v.1.15,2013-08-26 07:43:00,
2013-08-26 03:49:00,59.5,58.1,30.21,NNE,26,0.0,0.0,95,0.00,,,0.00,Wunderground v.1.15,2013-08-26 07:49:00,
2013-08-26 03:54:00,59.3,57.9,30.21,NNE,26,0.0,0.0,95,0.00,,,0.00,Wunderground v.1.15,2013-08-26 07:54:00,
2013-08-26 03:59:00,59.2,57.8,30.21,NNE,26,0.0,0.0,95,0.00,,,0.00,Wunderground v.1.15,2013-08-26 07:59:00,
2013-08-26 04:05:00,59.1,57.7,30.21,NNE,26,0.0,0.0,95,0.00,,,0.00,Wunderground v.1.15,2013-08-26 08:05:00,
2013-08-26 04:10:00,59.1,57.7,30.21,NNE,26,0.0,0.0,95,0.00,,,0.00,Wunderground v.1.15,2013-08-26 08:10:00,
2013-08-26 04:15:00,59.2,58.1,30.21,NNE,26,0.0,0.0,96,0.00,,,0.00,Wunderground v.1.15,2013-08-26 08:15:00,
2013-08-26 04:20:00,59.2,58.1,30.21,NNE,26,0.0,0.0,96,0.00,,,0.00,Wunderground v.1.15,2013-08-26 08:20:00,
2013-08-26 04:26:00,59.3,58.2,30.20,NNE,26,0.0,0.0,96,0.00,,,0.00,Wunderground v.1.15,2013-08-26 08:26:00,
2013-08-26 04:31:00,59.4,58.3,30.20,NNE,26,0.0,0.0,96,0.00,,,0.00,Wunderground v.1.15,2013-08-26 08:31:00,
2013-08-26 04:37:00,59.2,58.1,30.20,NNE,26,0.0,0.0,96,0.00,,,0.00,Wunderground v.1.15,2013-08-26 08:37:00,
2013-08-26 04:42:00,59.0,57.6,30.21,NNE,26,0.0,0.0,95,0.00,,,0.00,Wunderground v.1.15,2013-08-26 08:42:00,
2013-08-26 04:47:00,58.9,57.5,30.20,NNE,26,0.0,0.0,95,0.00,,,0.00,Wunderground v.1.15,2013-08-26 08:47:00,
2013-08-26 04:52:00,58.9,57.5,30.20,NNE,26,0.0,0.0,95,0.00,,,0.00,Wunderground v.1.15,2013-08-26 08:52:00,
2013-08-26 04:58:00,58.8,57.4,30.20,NNE,26,0.0,0.0,95,0.00,,,0.00,Wunderground v.1.15,2013-08-26 08:58:00,
2013-08-26 05:03:00,58.7,57.3,30.20,NNE,26,0.0,0.0,95,0.00,,,0.00,Wunderground v.1.15,2013-08-26 09:03:00,
2013-08-26 05:08:00,58.7,57.3,30.20,NNE,26,0.0,0.0,95,0.00,,,0.00,Wunderground v.1.15,2013-08-26 09:08:00,
2013-08-26 05:13:00,58.5,57.1,30.20,NNE,26,0.0,0.0,95,0.00,,,0.00,Wunderground v.1.15,2013-08-26 09:13:00,
2013-08-26 05:19:00,58.5,57.4,30.20,NNE,26,0.0,0.0,96,0.00,,,0.00,Wunderground v.1.15,2013-08-26 09:19:00,
2013-08-26 05:24:00,58.4,57.0,30.20,NNE,26,0.0,0.0,95,0.00,,,0.00,Wunderground v.1.15,2013-08-26 09:24:00,
2013-08-26 05:29:00,58.4,57.0,30.20,NNE,26,0.0,0.0,95,0.00,,,0.00,Wunderground v.1.15,2013-08-26 09:29:00,
2013-08-26 05:34:00,58.3,56.9,30.20,NNE,26,0.0,0.0,95,0.00,,,0.00,Wunderground v.1.15,2013-08-26 09:34:00,
2013-08-26 05:39:00,58.1,56.7,30.20,NNE,26,0.0,0.0,95,0.00,,,0.00,Wunderground v.1.15,2013-08-26 09:39:00,
2013-08-26 05:45:00,58.0,56.6,30.20,NNE,26,0.0,0.0,95,0.00,,,0.00,Wunderground v.1.15,2013-08-26 09:45:00,
2013-08-26 05:51:00,57.9,56.5,30.20,NNE,26,0.0,0.0,95,0.00,,,0.00,Wunderground v.1.15,2013-08-26 09:51:00,
2013-08-26 05:57:00,57.9,56.8,30.20,NNE,26,0.0,0.0,96,0.00,,,0.00,Wunderground v.1.15,2013-08-26 09:57:00,
2013-08-26 06:02:00,58.2,57.1,30.20,NNE,26,0.0,0.0,96,0.00,,,0.00,Wunderground v.1.15,2013-08-26 10:02:00,
2013-08-26 06:07:00,58.3,57.2,30.21,NNE,26,0.0,0.0,96,0.00,,,0.00,Wunderground v.1.15,2013-08-26 10:07:00,
2013-08-26 06:12:00,58.1,57.0,30.21,NNE,26,0.0,0.0,96,0.00,,,0.00,Wunderground v.1.15,2013-08-26 10:12:00,
2013-08-26 06:17:00,58.0,56.9,30.21,NNE,26,0.0,0.0,96,0.00,,,0.00,Wunderground v.1.15,2013-08-26 10:17:00,
2013-08-26 06:22:00,57.9,56.8,30.21,NNE,26,0.0,0.0,96,0.00,,,0.00,Wunderground v.1.15,2013-08-26 10:22:00,
2013-08-26 06:27:00,57.9,56.8,30.21,NNE,26,0.0,0.0,96,0.00,,,0.00,Wunderground v.1.15,2013-08-26 10:27:00,
2013-08-26 06:33:00,57.9,56.8,30.21,NNE,26,0.0,0.0,96,0.00,,,0.00,Wunderground v.1.15,2013-08-26 10:33:00,
2013-08-26 06:38:00,57.8,56.7,30.21,NNE,26,0.0,0.0,96,0.00,,,0.00,Wunderground v.1.15,2013-08-26 10:38:00,
2013-08-26 06:43:00,57.7,56.6,30.21,NNE,26,0.0,0.0,96,0.00,,,0.00,Wunderground v.1.15,2013-08-26 10:43:00,
2013-08-26 06:48:00,57.7,56.6,30.21,NNE,26,0.0,0.0,96,0.00,,,0.00,Wunderground v.1.15,2013-08-26 10:48:00,
2013-08-26 06:53:00,57.7,56.6,30.21,NNE,26,0.0,0.0,96,0.00,,,0.00,Wunderground v.1.15,2013-08-26 10:53:00,
2013-08-26 06:58:00,57.6,56.5,30.21,NNE,26,0.0,0.0,96,0.00,,,0.00,Wunderground v.1.15,2013-08-26 10:58:00,
2013-08-26 07:04:00,57.6,56.5,30.21,NNE,26,0.0,0.0,96,0.00,,,0.00,Wunderground v.1.15,2013-08-26 11:04:00,
2013-08-26 07:10:00,57.7,56.6,30.22,NNE,26,0.0,0.0,96,0.00,,,0.00,Wunderground v.1.15,2013-08-26 11:10:00,
2013-08-26 07:15:00,57.8,56.7,30.22,NNE,26,0.0,0.0,96,0.00,,,0.00,Wunderground v.1.15,2013-08-26 11:15:00,
2013-08-26 07:20:00,57.9,56.8,30.22,NNE,26,0.0,0.0,96,0.00,,,0.00,Wunderground v.1.15,2013-08-26 11:20:00,
2013-08-26 07:25:00,58.0,56.9,30.22,NNE,26,0.0,0.0,96,0.00,,,0.00,Wunderground v.1.15,2013-08-26 11:25:00,
2013-08-26 07:31:00,58.2,57.1,30.22,NNE,26,0.0,0.0,96,0.00,,,0.00,Wunderground v.1.15,2013-08-26 11:31:00,
2013-08-26 07:36:00,58.5,57.4,30.22,NNE,26,0.0,0.0,96,0.00,,,0.00,Wunderground v.1.15,2013-08-26 11:36:00,
2013-08-26 07:41:00,58.8,58.0,30.23,NNE,26,0.0,0.0,97,0.00,,,0.00,Wunderground v.1.15,2013-08-26 11:41:00,
2013-08-26 07:46:00,59.0,58.2,30.23,NNE,26,0.0,0.0,97,0.00,,,0.00,Wunderground v.1.15,2013-08-26 11:46:00,
2013-08-26 07:52:00,59.4,58.5,30.23,NNE,26,0.0,0.0,97,0.00,,,0.00,Wunderground v.1.15,2013-08-26 11:52:00,
2013-08-26 07:58:00,60.0,59.1,30.23,NNE,26,0.0,0.0,97,0.00,,,0.00,Wunderground v.1.15,2013-08-26 11:58:00,
2013-08-26 08:03:00,60.5,59.6,30.24,NNE,26,0.0,0.0,97,0.00,,,0.00,Wunderground v.1.15,2013-08-26 12:03:00,
2013-08-26 08:09:00,61.6,60.7,30.24,NNE,26,0.0,0.0,97,0.00,,,0.00,Wunderground v.1.15,2013-08-26 12:09:00,
2013-08-26 08:14:00,62.1,61.2,30.24,NNE,26,0.0,0.0,97,0.00,,,0.00,Wunderground v.1.15,2013-08-26 12:14:00,
2013-08-26 08:19:00,62.7,61.8,30.23,NNE,26,0.0,0.0,97,0.00,,,0.00,Wunderground v.1.15,2013-08-26 12:19:00,
2013-08-26 08:25:00,63.5,62.6,30.23,ENE,74,0.0,1.0,97,0.00,,,0.00,Wunderground v.1.15,2013-08-26 12:25:00,
2013-08-26 08:31:00,64.2,62.1,30.23,ENE,74,0.0,0.0,93,0.00,,,0.00,Wunderground v.1.15,2013-08-26 12:31:00,
2013-08-26 08:36:00,65.0,62.3,30.22,ENE,74,0.0,1.0,91,0.00,,,0.00,Wunderground v.1.15,2013-08-26 12:36:00,
2013-08-26 08:41:00,65.8,62.8,30.23,ENE,74,0.0,0.0,90,0.00,,,0.00,Wunderground v.1.15,2013-08-26 12:41:00,
2013-08-26 08:46:00,66.6,62.6,30.23,East,89,0.0,2.0,87,0.00,,,0.00,Wunderground v.1.15,2013-08-26 12:46:00,
2013-08-26 08:51:00,67.4,62.7,30.23,East,94,0.0,0.0,85,0.00,,,0.00,Wunderground v.1.15,2013-08-26 12:51:00,
2013-08-26 08:56:00,68.1,62.7,30.23,ESE,123,1.0,2.0,83,0.00,,,0.00,Wunderground v.1.15,2013-08-26 12:56:00,
2013-08-26 09:02:00,68.8,63.1,30.22,ESE,116,1.0,2.0,82,0.00,,,0.00,Wunderground v.1.15,2013-08-26 13:02:00,
2013-08-26 09:07:00,69.3,63.2,30.23,SE,131,1.0,2.0,81,0.00,,,0.00,Wunderground v.1.15,2013-08-26 13:07:00,
2013-08-26 09:12:00,69.7,63.3,30.22,ESE,113,0.0,1.0,80,0.00,,,0.00,Wunderground v.1.15,2013-08-26 13:12:00,
2013-08-26 09:17:00,70.1,63.3,30.22,ESE,112,0.0,2.0,79,0.00,,,0.00,Wunderground v.1.15,2013-08-26 13:17:00,
2013-08-26 09:22:00,70.5,64.0,30.22,SE,136,0.0,0.0,80,0.00,,,0.00,Wunderground v.1.15,2013-08-26 13:22:00,
2013-08-26 09:28:00,71.1,63.9,30.22,ESE,120,0.0,2.0,78,0.00,,,0.00,Wunderground v.1.15,2013-08-26 13:28:00,
2013-08-26 09:33:00,71.5,63.5,30.22,ESE,113,1.0,2.0,76,0.00,,,0.00,Wunderground v.1.15,2013-08-26 13:33:00,
2013-08-26 09:38:00,71.9,63.9,30.22,ESE,113,1.0,3.0,76,0.00,,,0.00,Wunderground v.1.15,2013-08-26 13:38:00,
2013-08-26 09:43:00,72.2,63.8,30.22,ESE,115,1.0,2.0,75,0.00,,,0.00,Wunderground v.1.15,2013-08-26 13:43:00,
2013-08-26 09:49:00,72.4,64.0,30.22,ESE,103,1.0,2.0,75,0.00,,,0.00,Wunderground v.1.15,2013-08-26 13:49:00,
2013-08-26 09:54:00,72.6,63.8,30.22,East,79,1.0,1.0,74,0.00,,,0.00,Wunderground v.1.15,2013-08-26 13:54:00,
2013-08-26 09:59:00,73.0,63.4,30.21,ESE,113,1.0,2.0,72,0.00,,,0.00,Wunderground v.1.15,2013-08-26 13:59:00,
2013-08-26 10:05:00,73.6,65.2,30.21,ESE,121,1.0,1.0,75,0.00,,,0.00,Wunderground v.1.15,2013-08-26 14:05:00,
2013-08-26 10:10:00,74.2,64.6,30.21,East,79,0.0,1.0,72,0.00,,,0.00,Wunderground v.1.15,2013-08-26 14:10:00,
2013-08-26 10:15:00,74.5,64.5,30.21,ENE,78,1.0,2.0,71,0.00,,,0.00,Wunderground v.1.15,2013-08-26 14:15:00,
2013-08-26 10:21:00,74.9,65.3,30.21,East,93,1.0,1.0,72,0.00,,,0.00,Wunderground v.1.15,2013-08-26 14:21:00,
2013-08-26 10:27:00,75.5,65.0,30.21,ESE,119,1.0,1.0,70,0.00,,,0.00,Wunderground v.1.15,2013-08-26 14:27:00,
2013-08-26 10:32:00,75.7,64.4,30.21,SE,125,0.0,1.0,68,0.00,,,0.00,Wunderground v.1.15,2013-08-26 14:32:00,
2013-08-26 10:37:00,76.0,65.1,30.21,NE,51,1.0,1.0,69,0.00,,,0.00,Wunderground v.1.15,2013-08-26 14:37:00,
2013-08-26 10:42:00,76.1,65.6,30.20,ESE,115,1.0,2.0,70,0.00,,,0.00,Wunderground v.1.15,2013-08-26 14:42:00,
2013-08-26 10:47:00,76.6,65.2,30.20,East,88,1.0,2.0,68,0.00,,,0.00,Wunderground v.1.15,2013-08-26 14:47:00,
2013-08-26 10:53:00,77.3,65.9,30.20,ESE,103,0.0,1.0,68,0.00,,,0.00,Wunderground v.1.15,2013-08-26 14:53:00,
2013-08-26 10:58:00,77.7,66.3,30.20,ESE,106,0.0,2.0,68,0.00,,,0.00,Wunderground v.1.15,2013-08-26 14:58:00,
2013-08-26 11:03:00,77.9,64.7,30.19,East,99,1.0,3.0,64,0.00,,,0.00,Wunderground v.1.15,2013-08-26 15:03:00,
2013-08-26 11:08:00,78.1,67.1,30.19,ESE,104,1.0,3.0,69,0.00,,,0.00,Wunderground v.1.15,2013-08-26 15:08:00,
2013-08-26 11:14:00,78.5,65.3,30.19,NE,42,1.0,1.0,64,0.00,,,0.00,Wunderground v.1.15,2013-08-26 15:14:00,
2013-08-26 11:19:00,79.1,67.2,30.19,East,101,0.0,1.0,67,0.00,,,0.00,Wunderground v.1.15,2013-08-26 15:19:00,
2013-08-26 11:24:00,79.6,65.4,30.19,ESE,117,0.0,0.0,62,0.00,,,0.00,Wunderground v.1.15,2013-08-26 15:24:00,
2013-08-26 11:29:00,79.8,67.4,30.19,ESE,103,0.0,2.0,66,0.00,,,0.00,Wunderground v.1.15,2013-08-26 15:29:00,
2013-08-26 11:35:00,80.2,66.9,30.19,East,90,1.0,2.0,64,0.00,,,0.00,Wunderground v.1.15,2013-08-26 15:35:00,
2013-08-26 11:40:00,80.4,68.0,30.19,SE,126,1.0,1.0,66,0.00,,,0.00,Wunderground v.1.15,2013-08-26 15:40:00,
2013-08-26 11:45:00,80.8,66.1,30.19,SSW,193,1.0,1.0,61,0.00,,,0.00,Wunderground v.1.15,2013-08-26 15:45:00,
2013-08-26 11:50:00,81.2,66.0,30.19,SSE,155,1.0,3.0,60,0.00,,,0.00,Wunderground v.1.15,2013-08-26 15:50:00,
2013-08-26 11:55:00,81.0,66.3,30.19,ENE,65,1.0,3.0,61,0.00,,,0.00,Wunderground v.1.15,2013-08-26 15:55:00,
2013-08-26 12:01:00,81.1,67.3,30.18,ESE,114,1.0,1.0,63,0.00,,,0.00,Wunderground v.1.15,2013-08-26 16:01:00,
2013-08-26 12:06:00,81.1,66.4,30.18,East,91,1.0,1.0,61,0.00,,,0.00,Wunderground v.1.15,2013-08-26 16:06:00,
2013-08-26 12:11:00,81.2,66.9,30.18,ESE,117,1.0,1.0,62,0.00,,,0.00,Wunderground v.1.15,2013-08-26 16:11:00,
2013-08-26 12:17:00,81.2,67.4,30.18,South,180,1.0,3.0,63,0.00,,,0.00,Wunderground v.1.15,2013-08-26 16:17:00,
2013-08-26 12:22:00,81.0,67.2,30.17,ESE,103,1.0,1.0,63,0.00,,,0.00,Wunderground v.1.15,2013-08-26 16:22:00,
2013-08-26 12:27:00,81.2,68.3,30.17,ESE,115,1.0,2.0,65,0.00,,,0.00,Wunderground v.1.15,2013-08-26 16:27:00,
2013-08-26 12:32:00,81.4,67.6,30.17,ESE,112,1.0,1.0,63,0.00,,,0.00,Wunderground v.1.15,2013-08-26 16:32:00,
2013-08-26 12:38:00,81.8,67.0,30.16,ESE,117,1.0,3.0,61,0.00,,,0.00,Wunderground v.1.15,2013-08-26 16:38:00,
2013-08-26 12:43:00,82.3,68.0,30.16,ESE,112,0.0,1.0,62,0.00,,,0.00,Wunderground v.1.15,2013-08-26 16:43:00,
2013-08-26 12:48:00,82.6,67.3,30.16,ENE,67,1.0,1.0,60,0.00,,,0.00,Wunderground v.1.15,2013-08-26 16:48:00,
2013-08-26 12:53:00,83.2,67.9,30.16,ESE,108,1.0,3.0,60,0.00,,,0.00,Wunderground v.1.15,2013-08-26 16:53:00,
2013-08-26 12:58:00,83.8,68.9,30.15,ESE,114,1.0,3.0,61,0.00,,,0.00,Wunderground v.1.15,2013-08-26 16:58:00,
2013-08-26 13:04:00,83.9,65.5,30.15,SE,132,1.0,2.0,54,0.00,,,0.00,Wunderground v.1.15,2013-08-26 17:04:00,
2013-08-26 13:09:00,84.0,67.1,30.15,ESE,103,1.0,3.0,57,0.00,,,0.00,Wunderground v.1.15,2013-08-26 17:09:00,
2013-08-26 13:14:00,84.1,69.7,30.15,ESE,105,1.0,3.0,62,0.00,,,0.00,Wunderground v.1.15,2013-08-26 17:14:00,
2013-08-26 13:19:00,84.4,67.0,30.14,NE,50,1.0,3.0,56,0.00,,,0.00,Wunderground v.1.15,2013-08-26 17:19:00,
2013-08-26 13:25:00,84.3,66.9,30.14,ESE,123,1.0,1.0,56,0.00,,,0.00,Wunderground v.1.15,2013-08-26 17:25:00,
2013-08-26 13:30:00,84.3,67.4,30.14,ESE,122,1.0,1.0,57,0.00,,,0.00,Wunderground v.1.15,2013-08-26 17:30:00,
2013-08-26 13:35:00,84.1,66.7,30.13,ESE,109,1.0,1.0,56,0.00,,,0.00,Wunderground v.1.15,2013-08-26 17:35:00,
2013-08-26 13:40:00,84.1,65.7,30.13,SSE,163,0.0,0.0,54,0.00,,,0.00,Wunderground v.1.15,2013-08-26 17:40:00,
2013-08-26 13:46:00,84.2,65.8,30.12,ENE,72,0.0,1.0,54,0.00,,,0.00,Wunderground v.1.15,2013-08-26 17:46:00,
2013-08-26 13:52:00,84.3,64.2,30.12,ESE,116,0.0,3.0,51,0.00,,,0.00,Wunderground v.1.15,2013-08-26 17:52:00,
2013-08-26 13:57:00,84.3,65.3,30.11,SSE,159,1.0,3.0,53,0.00,,,0.00,Wunderground v.1.15,2013-08-26 17:57:00,
2013-08-26 14:02:00,84.6,65.0,30.11,NE,48,1.0,1.0,52,0.00,,,0.00,Wunderground v.1.15,2013-08-26 18:02:00,
2013-08-26 14:08:00,85.0,68.1,30.11,NE,55,1.0,3.0,57,0.00,,,0.00,Wunderground v.1.15,2013-08-26 18:08:00,
2013-08-26 14:13:00,85.0,64.8,30.11,SE,127,1.0,2.0,51,0.00,,,0.00,Wunderground v.1.15,2013-08-26 18:13:00,
2013-08-26 14:18:00,84.8,65.2,30.11,ESE,111,1.0,4.0,52,0.00,,,0.00,Wunderground v.1.15,2013-08-26 18:18:00,
2013-08-26 14:23:00,84.8,67.4,30.11,ESE,103,1.0,2.0,56,0.00,,,0.00,Wunderground v.1.15,2013-08-26 18:23:00,
2013-08-26 14:28:00,84.9,66.9,30.11,ESE,103,1.0,3.0,55,0.00,,,0.00,Wunderground v.1.15,2013-08-26 18:28:00,
2013-08-26 14:33:00,84.9,66.4,30.10,ESE,121,1.0,2.0,54,0.00,,,0.00,Wunderground v.1.15,2013-08-26 18:33:00,
2013-08-26 14:39:00,84.9,65.3,30.10,ESE,113,1.0,3.0,52,0.00,,,0.00,Wunderground v.1.15,2013-08-26 18:39:00,
2013-08-26 14:44:00,84.6,65.0,30.10,ENE,78,1.0,3.0,52,0.00,,,0.00,Wunderground v.1.15,2013-08-26 18:44:00,
2013-08-26 14:49:00,84.5,65.5,30.10,ESE,114,1.0,3.0,53,0.00,,,0.00,Wunderground v.1.15,2013-08-26 18:49:00,
2013-08-26 14:55:00,84.3,66.9,30.09,NE,48,1.0,3.0,56,0.00,,,0.00,Wunderground v.1.15,2013-08-26 18:55:00,
2013-08-26 15:00:00,84.1,66.2,30.09,ESE,119,1.0,1.0,55,0.00,,,0.00,Wunderground v.1.15,2013-08-26 19:00:00,
2013-08-26 15:06:00,83.8,65.4,30.08,SE,140,1.0,3.0,54,0.00,,,0.00,Wunderground v.1.15,2013-08-26 19:06:00,
2013-08-26 15:11:00,83.5,69.1,30.08,South,190,1.0,1.0,62,0.00,,,0.00,Wunderground v.1.15,2013-08-26 19:11:00,
2013-08-26 15:16:00,83.2,66.9,30.08,ESE,121,1.0,2.0,58,0.00,,,0.00,Wunderground v.1.15,2013-08-26 19:16:00,
2013-08-26 15:21:00,82.7,66.9,30.08,NE,44,0.0,0.0,59,0.00,,,0.00,Wunderground v.1.15,2013-08-26 19:21:00,
2013-08-26 15:27:00,82.4,65.1,30.07,SE,134,0.0,3.0,56,0.00,,,0.00,Wunderground v.1.15,2013-08-26 19:27:00,
2013-08-26 15:32:00,82.7,64.9,30.07,East,84,0.0,0.0,55,0.00,,,0.00,Wunderground v.1.15,2013-08-26 19:32:00,
2013-08-26 15:37:00,82.7,65.9,30.07,SE,126,1.0,1.0,57,0.00,,,0.00,Wunderground v.1.15,2013-08-26 19:37:00,
2013-08-26 15:42:00,82.6,67.8,30.07,SE,142,1.0,1.0,61,0.00,,,0.00,Wunderground v.1.15,2013-08-26 19:42:00,
2013-08-26 15:47:00,82.5,67.2,30.06,East,100,1.0,4.0,60,0.00,,,0.00,Wunderground v.1.15,2013-08-26 19:47:00,
2013-08-26 15:52:00,82.1,69.2,30.06,ESE,107,0.0,0.0,65,0.00,,,0.00,Wunderground v.1.15,2013-08-26 19:52:00,
2013-08-26 15:58:00,81.6,69.1,30.06,East,96,0.0,1.0,66,0.00,,,0.00,Wunderground v.1.15,2013-08-26 19:58:00,
2013-08-26 16:03:00,80.9,65.7,30.06,SSE,168,0.0,3.0,60,0.00,,,0.00,Wunderground v.1.15,2013-08-26 20:03:00,
2013-08-26 16:08:00,81.1,68.2,30.05,ESE,109,1.0,3.0,65,0.00,,,0.00,Wunderground v.1.15,2013-08-26 20:08:00,
2013-08-26 16:13:00,81.2,67.4,30.05,East,94,1.0,1.0,63,0.00,,,0.00,Wunderground v.1.15,2013-08-26 20:13:00,
2013-08-26 16:19:00,81.1,66.8,30.05,ENE,63,0.0,3.0,62,0.00,,,0.00,Wunderground v.1.15,2013-08-26 20:19:00,
2013-08-26 16:24:00,81.3,69.3,30.05,WNW,291,1.0,2.0,67,0.00,,,0.00,Wunderground v.1.15,2013-08-26 20:24:00,
2013-08-26 16:30:00,81.3,68.0,30.04,ESE,106,0.0,0.0,64,0.00,,,0.00,Wunderground v.1.15,2013-08-26 20:30:00,
2013-08-26 16:35:00,81.2,69.6,30.04,NNE,15,0.0,2.0,68,0.00,,,0.00,Wunderground v.1.15,2013-08-26 20:35:00,
2013-08-26 16:41:00,81.0,67.7,30.04,ENE,75,0.0,0.0,64,0.00,,,0.00,Wunderground v.1.15,2013-08-26 20:41:00,
2013-08-26 16:47:00,80.4,68.4,30.04,SSE,167,0.0,1.0,67,0.00,,,0.00,Wunderground v.1.15,2013-08-26 20:47:00,
2013-08-26 16:52:00,80.3,67.5,30.04,East,101,0.0,0.0,65,0.00,,,0.00,Wunderground v.1.15,2013-08-26 20:52:00,
2013-08-26 16:57:00,80.1,69.4,30.04,East,101,0.0,0.0,70,0.00,,,0.00,Wunderground v.1.15,2013-08-26 20:57:00,
2013-08-26 17:03:00,80.1,68.6,30.03,East,98,0.0,0.0,68,0.00,,,0.00,Wunderground v.1.15,2013-08-26 21:03:00,
2013-08-26 17:08:00,80.0,68.1,30.03,ESE,123,1.0,2.0,67,0.00,,,0.00,Wunderground v.1.15,2013-08-26 21:08:00,
2013-08-26 17:13:00,80.1,68.6,30.04,NE,39,0.0,2.0,68,0.00,,,0.00,Wunderground v.1.15,2013-08-26 21:13:00,
2013-08-26 17:18:00,80.0,68.9,30.04,ENE,77,0.0,2.0,69,0.00,,,0.00,Wunderground v.1.15,2013-08-26 21:18:00,
2013-08-26 17:23:00,79.6,69.8,30.04,ENE,77,0.0,0.0,72,0.00,,,0.00,Wunderground v.1.15,2013-08-26 21:23:00,
2013-08-26 17:28:00,79.1,69.7,30.04,ENE,77,0.0,0.0,73,0.00,,,0.00,Wunderground v.1.15,2013-08-26 21:28:00,
2013-08-26 17:33:00,78.8,69.8,30.04,ENE,77,0.0,0.0,74,0.00,,,0.00,Wunderground v.1.15,2013-08-26 21:33:00,
2013-08-26 17:39:00,78.7,67.7,30.04,ESE,123,0.0,4.0,69,0.00,,,0.00,Wunderground v.1.15,2013-08-26 21:39:00,
2013-08-26 17:44:00,78.7,69.3,30.04,ESE,123,0.0,0.0,73,0.00,,,0.00,Wunderground v.1.15,2013-08-26 21:44:00,
2013-08-26 17:49:00,78.5,69.1,30.04,SE,136,0.0,0.0,73,0.00,,,0.00,Wunderground v.1.15,2013-08-26 21:49:00,
2013-08-26 17:54:00,78.1,69.5,30.04,SE,136,0.0,0.0,75,0.00,,,0.00,Wunderground v.1.15,2013-08-26 21:54:00,
2013-08-26 17:59:00,77.5,68.2,30.04,SE,136,0.0,1.0,73,0.00,,,0.00,Wunderground v.1.15,2013-08-26 21:59:00,
2013-08-26 18:04:00,77.2,68.7,30.04,SSE,148,0.0,0.0,75,0.00,,,0.00,Wunderground v.1.15,2013-08-26 22:04:00,
2013-08-26 18:10:00,77.1,68.2,30.04,ESE,119,0.0,0.0,74,0.00,,,0.00,Wunderground v.1.15,2013-08-26 22:10:00,
2013-08-26 18:15:00,76.8,67.5,30.04,ESE,119,0.0,0.0,73,0.00,,,0.00,Wunderground v.1.15,2013-08-26 22:15:00,
2013-08-26 18:20:00,76.5,67.6,30.03,ESE,119,0.0,0.0,74,0.00,,,0.00,Wunderground v.1.15,2013-08-26 22:20:00,
2013-08-26 18:26:00,76.0,67.1,30.03,ESE,119,0.0,0.0,74,0.00,,,0.00,Wunderground v.1.15,2013-08-26 22:26:00,
2013-08-26 18:32:00,75.8,67.3,30.02,SSE,155,0.0,0.0,75,0.00,,,0.00,Wunderground v.1.15,2013-08-26 22:32:00,
2013-08-26 18:37:00,75.6,67.9,30.02,SSE,155,0.0,0.0,77,0.00,,,0.00,Wunderground v.1.15,2013-08-26 22:37:00,
2013-08-26 18:42:00,75.3,67.6,30.02,SSE,155,0.0,0.0,77,0.00,,,0.00,Wunderground v.1.15,2013-08-26 22:42:00,
2013-08-26 18:47:00,75.2,67.5,30.02,SSE,155,0.0,1.0,77,0.00,,,0.00,Wunderground v.1.15,2013-08-26 22:47:00,
2013-08-26 18:53:00,75.0,67.7,30.02,SSE,155,0.0,0.0,78,0.00,,,0.00,Wunderground v.1.15,2013-08-26 22:53:00,
2013-08-26 18:58:00,74.9,67.2,30.01,NE,40,0.0,0.0,77,0.00,,,0.00,Wunderground v.1.15,2013-08-26 22:58:00,
2013-08-26 19:03:00,75.0,66.9,30.02,ENE,57,0.0,2.0,76,0.00,,,0.00,Wunderground v.1.15,2013-08-26 23:03:00,
2013-08-26 19:09:00,75.0,67.3,30.02,East,82,0.0,2.0,77,0.00,,,0.00,Wunderground v.1.15,2013-08-26 23:09:00,
2013-08-26 19:14:00,74.6,66.9,30.02,East,82,0.0,0.0,77,0.00,,,0.00,Wunderground v.1.15,2013-08-26 23:14:00,
2013-08-26 19:19:00,74.4,67.1,30.03,East,82,0.0,0.0,78,0.00,,,0.00,Wunderground v.1.15,2013-08-26 23:19:00,
2013-08-26 19:24:00,74.2,67.3,30.03,East,82,0.0,0.0,79,0.00,,,0.00,Wunderground v.1.15,2013-08-26 23:24:00,
2013-08-26 19:30:00,73.9,66.6,30.03,East,82,0.0,0.0,78,0.00,,,0.00,Wunderground v.1.15,2013-08-26 23:30:00,
2013-08-26 19:35:00,73.7,66.4,30.03,East,82,0.0,0.0,78,0.00,,,0.00,Wunderground v.1.15,2013-08-26 23:35:00,
2013-08-26 19:40:00,73.5,66.6,30.03,East,83,0.0,0.0,79,0.00,,,0.00,Wunderground v.1.15,2013-08-26 23:40:00,
2013-08-26 19:45:00,73.6,66.7,30.03,East,83,0.0,0.0,79,0.00,,,0.00,Wunderground v.1.15,2013-08-26 23:45:00,
2013-08-26 19:51:00,73.3,66.4,30.03,East,83,0.0,0.0,79,0.00,,,0.00,Wunderground v.1.15,2013-08-26 23:51:00,
2013-08-26 19:57:00,73.1,66.6,30.03,East,83,0.0,0.0,80,0.00,,,0.00,Wunderground v.1.15,2013-08-26 23:57:00,
2013-08-26 20:02:00,73.0,66.1,30.03,East,83,0.0,0.0,79,0.00,,,0.00,Wunderground v.1.15,2013-08-27 00:02:00,
2013-08-26 20:07:00,73.0,66.5,30.03,East,83,0.0,0.0,80,0.00,,,0.00,Wunderground v.1.15,2013-08-27 00:07:00,
2013-08-26 20:12:00,73.0,66.5,30.03,East,83,0.0,1.0,80,0.00,,,0.00,Wunderground v.1.15,2013-08-27 00:12:00,
2013-08-26 20:18:00,73.0,66.5,30.03,North,9,0.0,2.0,80,0.00,,,0.00,Wunderground v.1.15,2013-08-27 00:18:00,
2013-08-26 20:23:00,73.0,66.5,30.04,North,9,0.0,0.0,80,0.00,,,0.00,Wunderground v.1.15,2013-08-27 00:23:00,
2013-08-26 20:28:00,72.8,66.6,30.04,North,9,0.0,0.0,81,0.00,,,0.00,Wunderground v.1.15,2013-08-27 00:28:00,
2013-08-26 20:34:00,72.5,66.7,30.04,North,9,0.0,0.0,82,0.00,,,0.00,Wunderground v.1.15,2013-08-27 00:34:00,
2013-08-26 20:40:00,72.2,66.7,30.04,North,9,0.0,0.0,83,0.00,,,0.00,Wunderground v.1.15,2013-08-27 00:40:00,
2013-08-26 20:45:00,71.9,66.5,30.05,North,9,0.0,0.0,83,0.00,,,0.00,Wunderground v.1.15,2013-08-27 00:45:00,
2013-08-26 20:50:00,71.7,66.3,30.05,North,9,0.0,0.0,83,0.00,,,0.00,Wunderground v.1.15,2013-08-27 00:50:00,
2013-08-26 20:55:00,71.5,66.1,30.05,North,9,0.0,0.0,83,0.00,,,0.00,Wunderground v.1.15,2013-08-27 00:55:00,
2013-08-26 21:01:00,71.3,66.6,30.05,North,9,0.0,0.0,85,0.00,,,0.00,Wunderground v.1.15,2013-08-27 01:01:00,
2013-08-26 21:06:00,71.2,66.5,30.06,North,9,0.0,0.0,85,0.00,,,0.00,Wunderground v.1.15,2013-08-27 01:06:00,
2013-08-26 21:11:00,71.1,66.7,30.06,North,9,0.0,0.0,86,0.00,,,0.00,Wunderground v.1.15,2013-08-27 01:11:00,
2013-08-26 21:16:00,71.0,66.9,30.06,North,9,0.0,0.0,87,0.00,,,0.00,Wunderground v.1.15,2013-08-27 01:16:00,
2013-08-26 21:21:00,71.0,66.9,30.06,North,9,0.0,0.0,87,0.00,,,0.00,Wunderground v.1.15,2013-08-27 01:21:00,
2013-08-26 21:27:00,70.9,66.8,30.06,North,9,0.0,0.0,87,0.00,,,0.00,Wunderground v.1.15,2013-08-27 01:27:00,
2013-08-26 21:32:00,71.0,66.9,30.06,North,9,0.0,0.0,87,0.00,,,0.00,Wunderground v.1.15,2013-08-27 01:32:00,
2013-08-26 21:37:00,71.0,66.9,30.06,North,9,0.0,0.0,87,0.00,,,0.00,Wunderground v.1.15,2013-08-27 01:37:00,
2013-08-26 21:42:00,71.0,67.3,30.06,North,9,0.0,0.0,88,0.00,,,0.00,Wunderground v.1.15,2013-08-27 01:42:00,
2013-08-26 21:47:00,71.0,66.6,30.05,North,9,0.0,0.0,86,0.00,,,0.00,Wunderground v.1.15,2013-08-27 01:47:00,
2013-08-26 21:52:00,71.0,67.3,30.05,North,9,0.0,0.0,88,0.00,,,0.00,Wunderground v.1.15,2013-08-27 01:52:00,
2013-08-26 21:57:00,71.0,67.3,30.04,North,9,0.0,0.0,88,0.00,,,0.00,Wunderground v.1.15,2013-08-27 01:57:00,
2013-08-26 22:03:00,71.0,67.3,30.04,North,9,0.0,0.0,88,0.00,,,0.00,Wunderground v.1.15,2013-08-27 02:03:00,
2013-08-26 22:08:00,70.9,67.2,30.04,North,9,0.0,0.0,88,0.00,,,0.00,Wunderground v.1.15,2013-08-27 02:08:00,
2013-08-26 22:14:00,70.8,67.1,30.04,North,9,0.0,0.0,88,0.00,,,0.00,Wunderground v.1.15,2013-08-27 02:14:00,
2013-08-26 22:19:00,70.7,67.3,30.04,North,9,0.0,0.0,89,0.00,,,0.00,Wunderground v.1.15,2013-08-27 02:19:00,
2013-08-26 22:24:00,70.6,67.2,30.04,North,9,0.0,0.0,89,0.00,,,0.00,Wunderground v.1.15,2013-08-27 02:24:00,
2013-08-26 22:29:00,70.4,67.0,30.03,North,9,0.0,0.0,89,0.00,,,0.00,Wunderground v.1.15,2013-08-27 02:29:00,
2013-08-26 22:34:00,70.3,66.9,30.03,North,9,0.0,0.0,89,0.00,,,0.00,Wunderground v.1.15,2013-08-27 02:34:00,
2013-08-26 22:39:00,70.2,66.8,30.03,North,9,0.0,0.0,89,0.00,,,0.00,Wunderground v.1.15,2013-08-27 02:39:00,
2013-08-26 22:44:00,70.1,67.0,30.03,North,9,0.0,0.0,90,0.00,,,0.00,Wunderground v.1.15,2013-08-27 02:44:00,
2013-08-26 22:49:00,70.1,66.7,30.03,North,9,0.0,0.0,89,0.00,,,0.00,Wunderground v.1.15,2013-08-27 02:49:00,
2013-08-26 22:55:00,70.2,66.8,30.03,North,9,0.0,0.0,89,0.00,,,0.00,Wunderground v.1.15,2013-08-27 02:55:00,
2013-08-26 23:00:00,70.2,66.8,30.03,North,9,0.0,0.0,89,0.00,,,0.00,Wunderground v.1.15,2013-08-27 03:00:00,
2013-08-26 23:06:00,70.3,66.9,30.03,North,9,0.0,0.0,89,0.00,,,0.00,Wunderground v.1.15,2013-08-27 03:06:00,
2013-08-26 23:11:00,70.2,67.1,30.02,North,9,0.0,0.0,90,0.00,,,0.00,Wunderground v.1.15,2013-08-27 03:11:00,
2013-08-26 23:17:00,70.2,67.1,30.02,North,9,0.0,0.0,90,0.00,,,0.00,Wunderground v.1.15,2013-08-27 03:17:00,
2013-08-26 23:22:00,70.2,67.1,30.02,North,9,0.0,0.0,90,0.00,,,0.00,Wunderground v.1.15,2013-08-27 03:22:00,
2013-08-26 23:27:00,70.2,66.8,30.02,North,9,0.0,0.0,89,0.00,,,0.00,Wunderground v.1.15,2013-08-27 03:27:00,
2013-08-26 23:33:00,70.3,67.2,30.02,North,9,0.0,0.0,90,0.00,,,0.00,Wunderground v.1.15,2013-08-27 03:33:00,
2013-08-26 23:38:00,70.3,66.9,30.02,North,9,0.0,0.0,89,0.00,,,0.00,Wunderground v.1.15,2013-08-27 03:38:00,
2013-08-26 23:43:00,70.2,66.8,30.01,North,9,0.0,0.0,89,0.00,,,0.00,Wunderground v.1.15,2013-08-27 03:43:00,
2013-08-26 23:48:00,70.3,66.9,30.01,North,9,0.0,0.0,89,0.00,,,0.00,Wunderground v.1.15,2013-08-27 03:48:00,
2013-08-26 23:54:00,70.2,66.8,30.01,North,9,0.0,0.0,89,0.00,,,0.00,Wunderground v.1.15,2013-08-27 03:54:00,
2013-08-26 23:59:00,70.2,67.1,30.01,North,9,0.0,0.0,90,0.00,,,0.00,Wunderground v.1.15,2013-08-27 03:59:00,